Retour au catalogue

STARLINK-37685

ActifCommunicationsVLEO
NORAD 69373·PAYLOAD·🇺🇸 United States

Lancé Jun 4, 2026 depuis Cape Canaveral Space Force Station

Loading…

Prochains Passages (prochaines 24 heures)

TLE

FraisSource: CelesTrak SupGP

Époque: Sep 14, 2026, 21:13 UTC

1 69373C 26123W   26257.88451389 -.00020377  00000+0 -60178-3 0  2572
2 69373  53.1574 167.6447 0001199  78.1970 221.3060 15.34415415    10

Suivez STARLINK-37685 en temps réel avec AllMySat

Download on the App Store